Home > Weather > U.S.A. > Allentown > Past weeks

Flag for U.S.A. Weather past 2 weeks in Allentown, Pennsylvania, U.S.A.

46 °F


Feels Like: 42 °F
Forecast: 48 / 55 °F
Wind: 7 mph from East

Location: Lehigh Valley International Airport

Current Time: Dec 2, 2015 at 1:57:52 AM

Latest Report: Dec 2, 2015 at 12:51 AM

Visibility: 2 mi

Pressure: 29.97 "Hg

Humidity: 93%

Dew point: 44 °F

Location of AllentownLocation

Historic Weather in Allentown — Graph


Allentown temperature yesterday

Maximum temperature yesterday: 50 °F (at 1:53 PM)
Minimum temperature yesterday: 37 °F (at 4:03 AM)
Average temperature yesterday: 44 °F

Past Weeks' High & Low Weather Summary

High64 °F (Nov 27, 12:51 PM)97% (Dec 1, 5:51 PM)30.81 "Hg (Dec 1, 5:51 PM)
Low22 °F (Nov 23, 10:51 PM)28% (Nov 20, 12:51 PM)29.87 "Hg (Nov 22, 3:02 AM)
Average44 °F68%30.30 "Hg
* Reported Nov 16 11:51 PM — Dec 1 11:51 PM, Allentown, Weather by CustomWeather, © 2015

Note: Actual official high and low records may vary slightly from our data, if they occured in-between our weather recording intervals... More about our weather records


Allentown weather history for previous 24 hours

Time TempWeatherWind HumidityBarometerVisibility
11:51 PM
Tue, Dec 1
47 °FFog.7 mph93%29.98 "Hg1 mi
9:51 PM48 °FFog.8 mph93%30.00 "Hg2 mi
8:51 PM48 °FLight rain. Fog.6 mph93%30.03 "Hg2 mi
7:51 PM49 °FLow clouds.5 mph93%30.05 "Hg7 mi
6:51 PM49 °FFog.5 mph93%30.04 "Hg4 mi
5:51 PM49 °FLight rain. Fog.5 mph97%30.06 "Hg2 mi
4:51 PM50 °FLight rain. Fog.7 mph89%30.05 "Hg2 mi
3:51 PM49 °FLight rain. Fog.7 mph93%30.04 "Hg1 mi
2:51 PM49 °FLight rain. Fog.7 mph93%30.09 "Hg2 mi
1:53 PM50 °FLight rain. Fog.6 mph94%30.11 "Hg2 mi
12:51 PM49 °FLight rain. Fog.6 mph93%30.13 "Hg2 mi
11:51 AM47 °FLight rain. Fog.9 mph93%30.14 "Hg1 mi
10:51 AM45 °FLight rain. Fog.7 mph93%30.16 "Hg2 mi
9:51 AM44 °FLight rain. Fog.7 mph93%30.18 "Hg2 mi
8:51 AM43 °FLight rain. Fog.9 mph89%30.18 "Hg2 mi
7:51 AM41 °FLight rain. Fog.7 mph93%30.19 "Hg1 mi
6:51 AM40 °FLight rain. Fog.9 mph93%30.19 "Hg5 mi
5:51 AM39 °FLight rain. Fog.8 mph93%30.20 "Hg3 mi
5:02 AM39 °FLight rain. Fog.8 mph87%30.21 "Hg3 mi
4:51 AM39 °FLight rain. Fog.8 mph89%30.22 "Hg3 mi
4:03 AM37 °FLight rain. Fog.9 mph93%30.23 "Hg3 mi
3:51 AM38 °FRain. Fog.8 mph93%30.24 "Hg2 mi
1:51 AM38 °FLight rain. Fog.7 mph93%30.26 "Hg2 mi
Weather by CustomWeather, © 2015

See weather overviewHow to use our weather pages